Regional Weather Roundup
Issued by NWS

Home | Current Version | Previous Version | Graphics & Text | Print | Product List | Glossary On
Versions: 1 2 3 4 5 6 7 8 9 10 11 12 13 14 15 16 17 18 19 20 21 22 23 24 25 26 27 28 29 30 31 32 33 34 35 36 37 38 39 40 41 42 43 44 45 46 47 48 49 50
415
ASUS44 KMEG 070500
RWRTN
TENNESSEE HOURLY STATE WEATHER ROUNDUP
NATIONAL WEATHER SERVICE MEMPHIS TN
1100 PM CST TUE DEC 06 2016

TNZ002-004-019-021-049-052-054-088>092-070600-
WEST TENNESSEE

CITY           SKY/WX    TMP DP  RH WIND       PRES   REMARKS
MEMPHIS INTL   CLOUDY    45  41  86 NE9       30.07S
NWS MEMPHIS      N/A     44 N/A N/A MISG        N/A
JACKSON        CLOUDY    41  38  89 N6        30.10R
DYERSBURG      CLOUDY   N/A N/A N/A N3        30.10R
UNION CITY     CLEAR     36  36 100 N6        30.09S WCI  31
PARIS          MOCLDY    37  34  87 N3        30.09F
LEXINGTON      CLOUDY    41  36  81 N7        30.07S
$$

TNZ008-025-027-028-033-062-065-066-070600-
NORTH MIDDLE TENNESSEE

CITY           SKY/WX    TMP DP  RH WIND       PRES   REMARKS
NASHVILLE      CLOUDY    41  35  79 N10       30.09R
CLARKSVILLE    CLOUDY    40  34  79 N5        30.10R
SMYRNA         CLOUDY    42  37  82 N10       30.09R
CROSSVILLE     CLOUDY    40  36  86 NW7       30.01R
$$

TNZ061-075-076-078-094-096-097-070600-
SOUTH MIDDLE TENNESSEE

CITY           SKY/WX    TMP DP  RH WIND       PRES   REMARKS
TULLAHOMA      CLOUDY    41  37  87 N6        30.05R
WINCHESTER     CLOUDY    43  37  81 N8        30.04R
SHELBYVILLE    CLOUDY    45  43  93 N10       30.07R
$$

TNZ017-018-042-046-047-070600-
NORTHEAST TENNESSEE

CITY           SKY/WX    TMP DP  RH WIND       PRES   REMARKS
TRI CITIES     CLOUDY    46  45  96 NW3       29.95R FOG
$$

TNZ012-013-036-069-073-074-070600-
CENTRAL EAST TENNESSEE

CITY           SKY/WX    TMP DP  RH WIND       PRES   REMARKS
KNOXVILLE      MOCLDY    47  42  83 N7        29.98R
OAK RIDGE      CLEAR     42  39  89 E3        30.01R
GATLINBURG     MOCLDY    46  43  87 CALM      29.98R
$$

TNZ083-085-099-070600-
SOUTHEAST TENNESSEE

CITY           SKY/WX    TMP DP  RH WIND       PRES   REMARKS
CHATTANOOGA    PTCLDY    46  40  79 NW5       30.01R
$$

SKY/WX REPORTED AS FAIR MEANS FEW OR NO CLOUDS BELOW
12 THOUSAND FEET.





USA.gov is the U.S. government's official web portal to all federal, state and local government web resources and services.